MyTimes logo

TIMES

Webb Imagery

13/01/2005

YMCA at Boroondara Aquathon Series - Race #3

(1.5km run / 250m swim) x3

(Click on competitor name to view personalised results)

Name
Race #
Category
Team Name
Time
(h:mm:ss)
Avg Speed
km/hr
OAll
Place
Cat
Place
DAVIS Collin#733Adult Male0:28:40 11 11
WALPOLE Stuart#748Adult Male0:29:13 10.8 22
PRICE Johnathon#755Adult Male0:29:30 10.7 33
HOSKINS Wayne#760Adult Male0:31:12 10.1 44
MANSFIELD Jimmy#756Open Team0:31:26 10 51
RAFFERTY Dennis#734Adult Male0:31:37 10 65
HERBERT Kim#738Adult Female0:31:41 9.9 71
PICONE Kristy#750Open Team0:32:31 9.7 82
THYNNE Chris#735Adult Male0:32:46 9.6 96
NUNN James#744Adult Male0:33:28 9.4 107
EVANS Justin#736Adult Male0:35:00 9 118
POLLOCK Simon#732Adult Male0:35:01 9 129
CRANE Gregg#745Adult Male0:36:20 8.7 1310
LESTER Sarah#743Adult Female0:36:22 8.7 142
STAGGARD Brenton#754Adult Male0:36:28 8.6 1511
FALKENAU Andreas#741Adult Male0:37:26 8.4 1612
WORSNOP Peter#752Junior Team0:38:36 8.2 171
KENNEDY Gina#749Adult Female0:39:14 8 183
HRYCYSZYN Justin#746Adult Male0:41:01 7.7 1913
CAMERON Mary#737Adult Female0:41:18 7.6 204
MALONEY Greg#759Adult Male0:43:12 7.3 2114
GLASS Justin#751Adult Male0:43:22 7.3 2215
VANCE John#753Adult Male0:44:14 7.1 2316
MEAGHER Tiffany#762Adult Female0:44:35 7.1 245
JOLLEY Brenda#758Adult Female0:44:53 7 256
RUSHTOWN Sean#761Adult Male0:46:12 6.8 2617
SHIN Amanda#757Adult Female0:47:00 6.7 277
HERSANT Alana#739Adult Female0:49:16 6.4 288